This is the latest recevied weather packets stored in our database for station/object K1RFS. If no packets are shown the sender has not sent any weather packets the latest 1 day(s).
| Time | Temp. | Humidity | Pressure | Rain* | Wind** | Luminosity | Snow |
|---|---|---|---|---|---|---|---|
| 1778016662 | 13.89° C | 48% | 996 hPa | 0 mm | 0 m/s | 119 W/m² | - |
| 1778016358 | 13.89° C | 47% | 995.9 hPa | 0 mm | 0.45 m/s, 184° | 112 W/m² | - |
| 1778016065 | 13.33° C | 48% | 995.7 hPa | 0 mm | 0.89 m/s, 180° | 135 W/m² | - |
| 1778015752 | 13.89° C | 47% | 995.8 hPa | 0 mm | 0.89 m/s, 184° | 121 W/m² | - |
| 1778015449 | 13.89° C | 48% | 995.7 hPa | 0 mm | 0 m/s | 135 W/m² | - |
| 1778015145 | 13.89° C | 47% | 995.7 hPa | 0 mm | 0.89 m/s, 196° | 182 W/m² | - |
| 1778014843 | 13.89° C | 47% | 995.8 hPa | 0 mm | 0.45 m/s, 205° | 219 W/m² | - |
| 1778014541 | 13.89° C | 48% | 995.8 hPa | 0 mm | 0.89 m/s, 179° | 292 W/m² | - |
| 1778014238 | 13.33° C | 49% | 995.8 hPa | 0 mm | 0.89 m/s, 176° | 236 W/m² | - |
| 1778013935 | 13.33° C | 49% | 995.7 hPa | 0 mm | 0.45 m/s, 195° | 222 W/m² | - |
| 1778013632 | 12.78° C | 50% | 995.6 hPa | 0 mm | 0 m/s | 234 W/m² | - |
| 1778013329 | 12.78° C | 50% | 995.7 hPa | 0 mm | 1.79 m/s, 194° | 189 W/m² | - |
| 1778013026 | 12.78° C | 51% | 995.8 hPa | 0 mm | 0.45 m/s, 186° | 130 W/m² | - |
| 1778012722 | 12.78° C | 50% | 995.8 hPa | 0 mm | 0.89 m/s, 188° | 188 W/m² | - |
| 1778012418 | 12.78° C | 51% | 995.7 hPa | 0 mm | 1.34 m/s, 204° | 209 W/m² | - |
| 1778012115 | 12.78° C | 52% | 995.8 hPa | 0 mm | 0.45 m/s, 249° | 196 W/m² | - |
| 1778011812 | 12.78° C | 52% | 996 hPa | 0 mm | 1.34 m/s, 256° | 174 W/m² | - |
| 1778011510 | 12.78° C | 52% | 995.9 hPa | 0 mm | 0 m/s | 195 W/m² | - |
| 1778011207 | 12.22° C | 53% | 995.9 hPa | 0 mm | 1.34 m/s, 179° | 157 W/m² | - |
| 1778010903 | 12.22° C | 53% | 995.9 hPa | 0 mm | 0.45 m/s, 196° | 142 W/m² | - |
| 1778010600 | 12.22° C | 54% | 995.9 hPa | 0 mm | 1.34 m/s, 196° | 142 W/m² | - |
| 1778010293 | 12.22° C | 54% | 995.8 hPa | 0 mm | 0.45 m/s, 186° | 163 W/m² | - |
| 1778010001 | 12.22° C | 54% | 995.7 hPa | 0 mm | 0.45 m/s, 202° | 137 W/m² | - |
| 1778009690 | 12.22° C | 54% | 995.9 hPa | 0 mm | 0.45 m/s, 191° | 123 W/m² | - |
| 1778009387 | 12.78° C | 54% | 995.8 hPa | 0 mm | 0.89 m/s, 173° | 128 W/m² | - |
* Rain latest hour (hover to see other rain measurements)
** Current wind speed in m/s (hover to see current wind gust speed)